Location: �couen
(49.0206°N, 2.3831°E)
Time: 03:48:52
(UTC+00:00)

ATLAS 3B R/B - Pass Details

Date: 23 May 2022
Orbit: 976 x 1218 km, 63.8° (Epoch: 20 June)

Event Time Altitude Azimuth Distance (km) Brightness Sun altitude
Rises 23:18:40 0° 316° (NW) 3,966 6.5 -20.0°
Reaches altitude 10° 23:21:24 10° 311° (NW) 3,037 5.7 -20.0°
Maximum altitude 23:28:16 46° 241° (WSW) 1,537 3.3 -20.1°
Enters shadow 23:31:21 31° 191° (S) 1,951 3.5 -20.2°
